QPF
0.00 0.00 0.00 0.00 0.00 0.00 0.00 0.00 0.00 0.00 0.00 0.00 0.00 0.00 0.00 0.00 0.00 0.00 0.00 0.00 0.00 0.00 0.00 0.00 0.00 0.00 0.00 0.00 0.00 0.00 0.00 0.00 0.00 0.00 0.00 0.00 0.00 0.00 0.00 0.00 0.00 0.00 0.00 0.00
0.00 0.00 0.00 0.00 0.00 0.00 0.00 0.00 0.00 0.00 0.00 0.00 0.00 0.00 0.00 0.00 0.00 0.00 0.00 0.00 0.00 0.00 0.00 0.00 0.00 0.00 0.00 0.00 0.00 0.00 0.00 0.00 0.00 0.00 0.00 0.00 0.00 0.00 0.00 0.00 0.00 0.00 0.00 0.00
0.00 0.00 0.00 0.00 0.00 0.00 0.00 0.00 0.00 0.00 0.00 0.00 0.00 0.00 0.00 0.00 0.00 0.01 0.01 0.00 0.00 0.00 0.00 0.00 0.00 0.00 0.01 0.00 0.01 0.00 0.00 0.00 0.00 0.00 0.00 0.00 0.00 0.00 0.00 0.00 0.00 0.00 0.00 0.00
0.00 0.00 0.00 0.00 0.00 0.00 0.00 0.00 0.00 0.00 0.00 0.00 0.00 0.00 0.00 0.00 0.00 0.00 0.00 0.00 0.00 0.00 0.00 0.00 0.01 0.07 0.03 0.01 0.01 0.00 0.00 0.00 0.00 0.00 0.00 0.00 0.00 0.00 0.00 0.00 0.00 0.00 0.00 0.00
0.00 0.00 0.00 0.00 0.00 0.00 0.00 0.00 0.00 0.00 0.00 0.00 0.00 0.00 0.00 0.00 0.00 0.00 0.00 0.01 0.01 0.02 0.02 0.03 0.03 0.05 0.03 0.03 0.02 0.01 0.00 0.00 0.00 0.00 0.00 0.00 0.00 0.00 0.00 0.00 0.00 0.00 0.00 0.00
0.00 0.00 0.00 0.00 0.00 0.00 0.00 0.00 0.00 0.00 0.00 0.00 0.00 0.00 0.00 0.00 0.00 0.00 0.00 0.00 0.02 0.02 0.02 0.01 0.03 0.02 0.00 0.00 0.00 0.00 0.00 0.00 0.00 0.00 0.00 0.00 0.00 0.00 0.00 0.00 0.00 0.00 0.00 0.00
0.00 0.00 0.00 0.00 0.00 0.00 0.00 0.00 0.00 0.00 0.00 0.00 0.00 0.00 0.00 0.00 0.00 0.00 0.00 0.00 0.00 0.00 0.00 0.00 0.00 0.00 0.00 0.00 0.00 0.00 0.00 0.00 0.00 0.00 0.00 0.00 0.00 0.00 0.00 0.00 0.00 0.00 0.00 0.00
0.00 0.00 0.00 0.00 0.00 0.00 0.00 0.00 0.00 0.00 0.00 0.00 0.00 0.00 0.00 0.00 0.00 0.00 0.00 0.00 0.00 0.00 0.00 0.00 0.00 0.00 0.00 0.00 0.00 0.00 0.00 0.00 0.00 0.00 0.00 0.00 0.00 0.00 0.00 0.00 0.00 0.00 0.00 0.00
0.00 0.00 0.00 0.00 0.00 0.00 0.00 0.00 0.00 0.00 0.00 0.00 0.00 0.00 0.00 0.00 0.00 0.00 0.00 0.00 0.00 0.00 0.00 0.00 0.00 0.00 0.00 0.00 0.00 0.00 0.00 0.00 0.00 0.00 0.00 0.00 0.00 0.00 0.00 0.00 0.00 0.00 0.00 0.00
0.00 0.00 0.00 0.00 0.00 0.00 0.00 0.00 0.00 0.00 0.00 0.00 0.00 0.00 0.00 0.00 0.00 0.00 0.00 0.00 0.00 0.00 0.00 0.00 0.00 0.00 0.00 0.00 0.00 0.00 0.00 0.00 0.00 0.00 0.00 0.00 0.00 0.00 0.00 0.00 0.00 0.00 0.00 0.00
0.00 0.00 0.00 0.00 0.00 0.00 0.00 0.00 0.00 0.00 0.00 0.00 0.00 0.00 0.00 0.00 0.00 0.00 0.00 0.00 0.01 0.01 0.01 0.01 0.00 0.00 0.00 0.00 0.00 0.00 0.00 0.00 0.00 0.00 0.00 0.00 0.00 0.00 0.00 0.00 0.00 0.00 0.00 0.00
0.00 0.00 0.00 0.00 0.00 0.00 0.00 0.00 0.00 0.00 0.00 0.00 0.00 0.00 0.00 0.00 0.00 0.00 0.00 0.00 0.01 0.02 0.01 0.00 0.00 0.01 0.01 0.00 0.00 0.00 0.00 0.00 0.00 0.00 0.00 0.00 0.00 0.00 0.00 0.00 0.00 0.00 0.00 0.00
0.00 0.00 0.00 0.00 0.00 0.00 0.00 0.00 0.00 0.00 0.00 0.00 0.00 0.00 0.00 0.00 0.00 0.00 0.00 0.01 0.01 0.01 0.00 0.00 0.01 0.00 0.00 0.00 0.00 0.00 0.00 0.00 0.00 0.00 0.00 0.00 0.00 0.00 0.00 0.00 0.00 0.00 0.00 0.00
0.00 0.00 0.00 0.00 0.00 0.00 0.00 0.00 0.00 0.00 0.00 0.00 0.00 0.00 0.00 0.00 0.00 0.00 0.00 0.00 0.00 0.00 0.00 0.01 0.00 0.00 0.00 0.00 0.00 0.00 0.00 0.00 0.00 0.00 0.00 0.00 0.00 0.00 0.00 0.00 0.00 0.00 0.00 0.00
0.01 0.01 0.00 0.00 0.00 0.00 0.00 0.00 0.00 0.00 0.00 0.00 0.00 0.00 0.00 0.00 0.00 0.00 0.00 0.00 0.00 0.00 0.01 0.00 0.00 0.00 0.00 0.00 0.00 0.00 0.00 0.00 0.00 0.00 0.00 0.00 0.00 0.00 0.00 0.00 0.00 0.00 0.00 0.00
0.00 0.00 0.00 0.00 0.00 0.00 0.00 0.00 0.00 0.00 0.00 0.00 0.00 0.00 0.00 0.00 0.00 0.00 0.00 0.00 0.00 0.01 0.00 0.00 0.00 0.00 0.00 0.00 0.00 0.00 0.00 0.00 0.00 0.00 0.00 0.00 0.00 0.00 0.00 0.00 0.00 0.00 0.00 0.00
0.00 0.00 0.00 0.00 0.00 0.00 0.00 0.00 0.00 0.00 0.00 0.00 0.00 0.00 0.00 0.00 0.00 0.00 0.00 0.00 0.00 0.00 0.00 0.00 0.00 0.00 0.00 0.00 0.00 0.00 0.00 0.00 0.00 0.00 0.00 0.00 0.00 0.00 0.00 0.00 0.00 0.00 0.00 0.00
0.00 0.00 0.00 0.00 0.00 0.00 0.00 0.00 0.00 0.00 0.00 0.00 0.00 0.00 0.00 0.00 0.00 0.00 0.00 0.00 0.00 0.00 0.00 0.00 0.00 0.00 0.00 0.00 0.00 0.00 0.00 0.00 0.00 0.00 0.00 0.00 0.00 0.00 0.00 0.00 0.00 0.00 0.00 0.00
0.00 0.00 0.00 0.00 0.00 0.00 0.00 0.00 0.00 0.00 0.00 0.00 0.00 0.00 0.00 0.00 0.00 0.00 0.00 0.00 0.00 0.00 0.00 0.00 0.00 0.00 0.00 0.00 0.00 0.00 0.00 0.00 0.00 0.00 0.00 0.00 0.00 0.00 0.00 0.00 0.00 0.00 0.00 0.00
0.00 0.00 0.00 0.00 0.00 0.00 0.00 0.00 0.00 0.00 0.00 0.00 0.00 0.00 0.00 0.00 0.00 0.00 0.00 0.00 0.00 0.00 0.00 0.00 0.00 0.00 0.00 0.00 0.00 0.00 0.00 0.00 0.00 0.00 0.00 0.00 0.00 0.00 0.01 0.00 0.00 0.00 0.00 0.00
0.00 0.00 0.00 0.00 0.00 0.00 0.00 0.00 0.00 0.00 0.00 0.00 0.00 0.00 0.00 0.00 0.00 0.00 0.00 0.00 0.00 0.00 0.00 0.00 0.00 0.00 0.00 0.00 0.00 0.00 0.00 0.00 0.00 0.00 0.00 0.00 0.00 0.00 0.01 0.00 0.00 0.00 0.01 0.03
0.00 0.00 0.00 0.00 0.00 0.00 0.00 0.00 0.00 0.00 0.00 0.00 0.00 0.00 0.00 0.00 0.00 0.00 0.00 0.00 0.00 0.00 0.00 0.00 0.00 0.00 0.00 0.00 0.00 0.00 0.00 0.00 0.00 0.00 0.00 0.00 0.00 0.00 0.01 0.00 0.00 0.01 0.02 0.07
0.00 0.00 0.00 0.00 0.00 0.00 0.00 0.00 0.00 0.00 0.00 0.00 0.00 0.00 0.00 0.00 0.00 0.00 0.00 0.00 0.00 0.00 0.00 0.00 0.00 0.00 0.00 0.00 0.00 0.00 0.00 0.00 0.00 0.00 0.00 0.00 0.00 0.00 0.01 0.00 0.00 0.02 0.05 0.07
0.00 0.00 0.00 0.00 0.00 0.00 0.00 0.00 0.00 0.00 0.00 0.00 0.00 0.00 0.00 0.00 0.00 0.00 0.00 0.00 0.00 0.00 0.00 0.00 0.00 0.00 0.00 0.00 0.00 0.00 0.00 0.00 0.00 0.00 0.00 0.00 0.00 0.00 0.00 0.00 0.01 0.03 0.03 0.01
0.00 0.00 0.00 0.00 0.00 0.00 0.00 0.00 0.00 0.00 0.00 0.00 0.00 0.00 0.00 0.00 0.00 0.00 0.00 0.00 0.00 0.00 0.00 0.00 0.00 0.00 0.00 0.00 0.00 0.00 0.00 0.00 0.00 0.00 0.00 0.00 0.00 0.00 0.00 0.00 0.00 0.00 0.01 0.00
0.00 0.00 0.00 0.00 0.00 0.00 0.00 0.00 0.00 0.00 0.00 0.00 0.00 0.00 0.00 0.00 0.00 0.00 0.00 0.00 0.00 0.00 0.00 0.00 0.00 0.00 0.00 0.00 0.00 0.00 0.00 0.00 0.00 0.00 0.00 0.00 0.00 0.00 0.00 0.00 0.00 0.00 0.00 0.00
MSLP
1011.20 1011.03 1010.53 1010.29 1010.74 1010.58 1010.88 1011.16 1011.27 1011.40 1011.88 1012.55 1012.45 1012.48 1013.06 1014.24 1014.83 1015.18 1015.61 1015.85 1016.14 1016.21 1016.61 1017.26 1017.81 1018.12 1018.43 1018.97 1019.41 1019.61 1020.02 1020.12 1020.41 1020.31 1020.16 1019.98 1019.68 1019.77 1019.72 1019.69 1019.77 1019.70 1019.66 1019.63
1011.10 1010.27 1009.74 1010.10 1010.13 1010.38 1010.43 1010.60 1010.62 1011.34 1011.92 1012.35 1012.43 1012.13 1012.59 1013.60 1014.12 1014.62 1014.96 1015.23 1015.36 1015.63 1016.18 1016.91 1017.42 1017.63 1018.03 1018.30 1018.72 1019.01 1019.27 1019.55 1019.75 1019.83 1019.91 1020.04 1019.73 1019.43 1019.47 1019.44 1019.43 1019.40 1019.31 1019.19
1009.81 1009.36 1009.47 1009.56 1009.48 1009.68 1009.71 1010.00 1010.14 1010.82 1011.83 1012.52 1012.63 1012.07 1012.27 1013.11 1013.66 1014.06 1014.39 1014.66 1014.88 1015.08 1015.43 1015.96 1016.59 1016.91 1017.37 1017.71 1018.03 1018.41 1018.64 1019.02 1019.30 1019.38 1019.82 1019.86 1019.81 1019.60 1019.36 1019.08 1019.04 1018.94 1019.13 1018.99
1009.32 1009.20 1008.98 1008.96 1008.90 1009.24 1008.93 1009.07 1009.73 1010.64 1011.43 1011.85 1012.75 1012.04 1011.93 1012.59 1012.87 1013.17 1013.52 1013.82 1014.18 1014.45 1014.96 1015.17 1015.78 1016.22 1016.57 1016.99 1017.58 1018.12 1018.61 1018.66 1018.89 1019.18 1019.53 1019.59 1019.22 1018.96 1018.76 1018.95 1018.81 1018.86 1018.86 1018.73
1008.49 1008.51 1008.73 1008.53 1008.19 1008.67 1008.56 1009.00 1009.68 1010.47 1011.12 1011.73 1012.30 1012.59 1011.56 1012.43 1012.02 1012.00 1012.53 1013.03 1013.50 1013.94 1014.33 1014.69 1015.37 1015.92 1016.26 1016.98 1017.58 1018.11 1018.30 1018.49 1018.73 1019.03 1019.18 1019.16 1018.91 1018.84 1018.83 1018.78 1018.66 1018.57 1018.47 1018.41
1008.29 1008.54 1008.39 1007.82 1007.69 1008.22 1008.74 1009.18 1009.96 1010.57 1010.94 1011.14 1011.38 1012.04 1011.35 1011.48 1011.50 1011.56 1011.99 1012.55 1013.16 1013.87 1014.07 1014.57 1015.20 1015.73 1016.04 1016.70 1016.97 1017.02 1017.74 1018.13 1018.36 1018.61 1018.70 1018.82 1018.66 1018.47 1018.38 1018.13 1018.10 1018.00 1018.00 1018.03
1008.23 1008.02 1007.70 1007.70 1007.85 1008.44 1008.86 1009.27 1009.54 1010.04 1010.57 1010.71 1011.82 1012.20 1010.91 1011.20 1011.60 1011.94 1012.13 1012.40 1013.00 1013.57 1013.98 1014.50 1014.85 1015.32 1016.13 1016.41 1016.54 1017.03 1017.31 1017.58 1017.78 1018.01 1018.26 1018.42 1018.37 1018.33 1018.19 1018.07 1018.04 1017.88 1017.63 1017.60
1008.23 1007.92 1007.64 1007.32 1007.61 1007.93 1008.82 1009.38 1009.74 1009.76 1010.33 1010.81 1012.34 1011.70 1011.00 1011.45 1011.75 1012.00 1012.31 1012.47 1013.09 1013.66 1014.04 1014.40 1014.79 1015.28 1015.80 1016.13 1016.75 1016.84 1017.04 1017.16 1017.34 1017.80 1017.95 1018.14 1018.33 1018.23 1018.11 1018.17 1018.21 1018.02 1017.69 1017.43
1008.48 1008.19 1007.65 1007.78 1007.91 1008.44 1009.24 1009.76 1010.34 1010.38 1011.30 1011.32 1011.40 1011.44 1011.05 1011.47 1011.61 1011.95 1012.35 1012.71 1013.02 1013.46 1014.07 1014.69 1015.33 1015.41 1015.38 1015.88 1016.38 1016.78 1016.95 1017.25 1017.80 1017.84 1018.11 1018.24 1018.29 1018.28 1018.15 1017.99 1017.91 1017.61 1017.48 1017.20
1008.90 1008.72 1008.27 1008.19 1008.30 1009.07 1009.38 1010.22 1010.70 1010.97 1010.90 1010.84 1011.28 1011.50 1011.14 1011.07 1011.09 1011.75 1012.19 1012.51 1013.09 1013.73 1014.43 1014.92 1015.37 1015.69 1015.51 1016.22 1016.68 1017.33 1017.59 1017.75 1017.83 1017.97 1018.11 1018.08 1018.26 1018.23 1018.21 1018.06 1017.68 1017.38 1017.16 1016.92
1009.09 1009.44 1009.14 1008.89 1008.89 1009.25 1009.84 1010.25 1011.15 1011.65 1011.74 1011.41 1011.43 1011.42 1011.48 1011.58 1011.90 1012.02 1012.23 1012.77 1013.49 1014.08 1014.65 1015.16 1015.66 1016.36 1016.98 1017.21 1017.30 1017.47 1017.58 1017.68 1017.70 1017.97 1018.17 1018.15 1018.11 1018.10 1018.02 1017.84 1017.50 1017.21 1016.89 1016.53
1010.04 1009.98 1009.57 1009.33 1009.67 1009.95 1010.09 1010.61 1011.16 1011.47 1012.09 1012.42 1012.33 1011.85 1012.18 1012.38 1012.57 1012.73 1012.56 1012.91 1013.51 1014.44 1015.21 1015.85 1016.66 1017.08 1017.13 1017.08 1017.16 1017.48 1017.79 1017.86 1018.03 1018.25 1018.21 1018.14 1018.20 1018.18 1018.01 1017.70 1017.25 1016.96 1016.50 1016.12
1010.34 1010.62 1010.30 1010.03 1010.44 1010.31 1010.50 1010.98 1011.58 1012.09 1012.33 1012.04 1012.08 1011.95 1012.52 1012.63 1012.72 1012.97 1013.07 1013.36 1014.08 1015.17 1016.19 1016.71 1017.13 1017.40 1017.61 1017.51 1017.76 1017.99 1018.12 1018.31 1018.35 1018.40 1018.37 1018.27 1018.24 1018.14 1017.86 1017.48 1017.04 1016.69 1016.13 1015.62
1010.92 1011.23 1010.95 1010.62 1010.82 1011.19 1011.18 1011.29 1011.60 1011.97 1012.22 1012.38 1012.54 1012.79 1012.74 1013.03 1013.22 1013.45 1013.98 1014.60 1015.28 1015.82 1016.52 1016.91 1017.36 1017.37 1017.77 1017.67 1018.00 1018.37 1018.44 1018.53 1018.58 1018.61 1018.43 1018.28 1018.17 1017.97 1017.68 1017.29 1016.74 1016.27 1015.80 1015.28
1011.47 1011.60 1011.65 1011.26 1011.44 1011.59 1011.79 1011.87 1012.04 1012.27 1012.82 1012.95 1013.26 1013.45 1014.00 1014.32 1014.35 1014.47 1015.00 1015.41 1015.90 1016.63 1016.81 1016.70 1016.91 1017.55 1017.97 1018.05 1018.50 1018.65 1018.71 1018.71 1018.74 1018.53 1018.36 1018.27 1018.13 1017.82 1017.41 1016.96 1016.51 1015.94 1015.48 1015.07
1012.04 1012.10 1011.82 1011.55 1011.62 1011.67 1011.98 1012.38 1012.67 1012.80 1013.20 1013.56 1013.99 1014.20 1015.11 1015.21 1015.03 1015.19 1015.46 1015.78 1016.22 1016.40 1016.69 1016.92 1017.30 1017.90 1018.18 1018.53 1018.74 1018.79 1018.76 1018.74 1018.74 1018.54 1018.38 1018.25 1017.95 1017.55 1017.11 1016.69 1016.30 1015.81 1015.31 1014.86
1012.11 1012.05 1011.97 1011.79 1012.08 1012.08 1012.41 1012.83 1013.08 1013.37 1014.00 1014.35 1014.47 1015.43 1015.65 1015.56 1015.75 1016.03 1016.20 1016.41 1016.60 1016.98 1017.21 1017.41 1017.72 1018.08 1018.55 1018.73 1018.92 1018.79 1018.79 1018.78 1018.74 1018.59 1018.33 1018.02 1017.72 1017.30 1016.96 1016.54 1016.06 1015.55 1015.13 1014.62
1012.23 1012.34 1012.55 1012.21 1012.26 1012.42 1013.03 1013.39 1013.62 1013.89 1014.60 1015.00 1015.46 1015.89 1016.26 1016.55 1016.72 1016.68 1016.71 1016.70 1016.93 1017.26 1017.46 1017.66 1017.97 1018.38 1018.71 1018.81 1018.79 1018.84 1018.75 1018.72 1018.65 1018.46 1018.17 1017.82 1017.53 1017.11 1016.69 1016.30 1015.82 1015.41 1014.93 1014.27
1012.47 1012.57 1012.84 1012.96 1012.85 1013.24 1013.30 1013.68 1013.89 1013.97 1014.98 1015.50 1015.73 1016.14 1016.58 1016.90 1016.91 1016.83 1017.11 1017.21 1017.28 1017.52 1017.73 1018.01 1018.23 1018.54 1018.74 1018.75 1018.73 1018.81 1018.71 1018.59 1018.46 1018.21 1017.92 1017.59 1017.31 1016.87 1016.45 1016.06 1015.62 1015.16 1014.61 1013.86
1012.88 1012.97 1013.03 1013.58 1013.37 1013.36 1013.78 1014.04 1014.23 1014.33 1014.84 1015.70 1015.91 1016.19 1016.53 1016.77 1016.31 1016.46 1017.01 1017.33 1017.60 1017.82 1018.05 1018.20 1018.37 1018.55 1018.67 1018.56 1018.67 1018.66 1018.45 1018.31 1018.09 1017.87 1017.63 1017.62 1017.32 1016.75 1016.26 1015.97 1015.51 1014.98 1014.32 1013.53
1012.92 1013.34 1013.51 1013.91 1013.80 1014.04 1014.17 1014.33 1014.20 1014.46 1015.62 1015.70 1015.98 1016.22 1016.50 1016.61 1016.95 1017.16 1017.30 1017.48 1017.80 1017.97 1018.10 1018.31 1018.48 1018.46 1018.39 1018.47 1018.59 1018.38 1018.13 1017.89 1017.65 1017.56 1017.73 1017.52 1017.14 1016.66 1016.22 1016.05 1015.29 1014.74 1013.97 1013.21
1013.14 1013.45 1013.95 1014.34 1014.31 1014.53 1014.63 1014.43 1014.44 1015.13 1015.51 1015.68 1015.94 1016.22 1016.50 1016.85 1017.09 1017.17 1017.25 1017.45 1017.73 1017.85 1018.00 1018.26 1018.21 1018.23 1018.23 1018.32 1018.32 1017.94 1017.66 1017.41 1017.17 1017.67 1017.42 1016.89 1016.79 1016.26 1016.01 1015.90 1015.04 1014.51 1013.96 1013.36
1013.58 1014.14 1014.33 1014.89 1014.86 1015.07 1015.04 1014.88 1015.16 1015.36 1015.36 1015.63 1015.91 1016.27 1016.55 1016.73 1016.81 1016.88 1016.97 1017.21 1017.45 1017.65 1017.75 1017.82 1017.89 1017.87 1017.84 1017.74 1017.82 1017.53 1017.10 1017.01 1017.17 1017.35 1016.93 1016.57 1016.46 1016.11 1015.84 1015.74 1015.16 1014.64 1014.20 1013.71
1014.12 1014.48 1014.42 1014.98 1015.11 1015.00 1014.93 1015.17 1015.36 1015.44 1015.41 1015.66 1015.86 1016.10 1016.44 1016.42 1016.54 1016.58 1016.69 1016.90 1017.16 1017.32 1017.31 1017.34 1017.53 1017.51 1017.39 1017.23 1017.22 1017.14 1016.94 1016.86 1016.89 1016.81 1016.51 1016.32 1016.12 1015.98 1015.78 1015.46 1015.08 1014.76 1014.41 1014.23
1014.48 1014.68 1014.63 1014.77 1014.80 1014.87 1014.98 1015.11 1015.23 1015.38 1015.55 1015.63 1015.78 1015.96 1016.09 1016.24 1016.16 1016.26 1016.36 1016.50 1016.72 1016.85 1016.86 1017.03 1017.15 1017.20 1017.03 1016.84 1016.68 1016.51 1016.39 1016.53 1016.38 1016.26 1016.18 1016.01 1015.71 1015.68 1015.43 1015.09 1014.96 1014.75 1014.52 1014.90
1014.61 1014.58 1014.30 1014.44 1014.71 1014.78 1014.81 1014.97 1015.18 1015.30 1015.36 1015.31 1015.44 1015.67 1015.75 1015.92 1015.80 1016.11 1016.16 1016.21 1016.39 1016.41 1016.49 1016.63 1016.61 1016.50 1016.25 1016.09 1015.95 1015.82 1015.85 1016.02 1015.97 1015.87 1015.67 1015.53 1015.54 1015.32 1015.02 1014.79 1014.53 1014.66 1014.80 1014.63
Thickness
5763 5756 5751 5765 5760 5764 5753 5743 5741 5751 5754 5744 5745 5745 5747 5734 5727 5722 5717 5712 5706 5704 5704 5698 5690 5685 5679 5671 5663 5657 5650 5646 5640 5637 5632 5629 5626 5621 5616 5612 5608 5606 5603 5599
5749 5748 5769 5765 5764 5753 5750 5742 5745 5745 5745 5742 5737 5742 5745 5734 5727 5723 5717 5711 5707 5704 5699 5690 5684 5680 5673 5668 5660 5655 5649 5643 5638 5633 5627 5621 5619 5616 5609 5605 5602 5599 5596 5593
5748 5765 5768 5763 5761 5752 5754 5744 5748 5745 5736 5733 5727 5734 5734 5730 5727 5723 5718 5713 5708 5703 5697 5692 5685 5679 5673 5665 5660 5653 5647 5640 5634 5629 5618 5613 5608 5605 5601 5599 5595 5591 5587 5585
5754 5767 5762 5760 5758 5755 5745 5765 5757 5741 5732 5726 5721 5707 5732 5723 5720 5719 5715 5711 5706 5703 5697 5693 5684 5678 5671 5664 5657 5649 5639 5635 5629 5621 5611 5604 5603 5599 5596 5590 5588 5583 5579 5576
5755 5761 5755 5753 5762 5764 5755 5763 5752 5739 5728 5720 5714 5700 5733 5712 5717 5719 5716 5711 5706 5701 5695 5687 5680 5673 5667 5657 5648 5640 5634 5629 5621 5613 5606 5600 5596 5593 5588 5583 5579 5576 5572 5567
5762 5769 5765 5767 5775 5768 5764 5753 5739 5730 5725 5709 5722 5706 5717 5717 5719 5718 5715 5709 5702 5694 5690 5683 5677 5669 5662 5652 5646 5641 5630 5623 5616 5608 5601 5593 5588 5586 5582 5578 5573 5570 5565 5558
5752 5759 5770 5773 5759 5760 5753 5741 5720 5711 5708 5707 5703 5694 5717 5718 5715 5709 5705 5703 5698 5691 5684 5674 5670 5663 5653 5647 5641 5633 5626 5617 5610 5602 5594 5587 5582 5577 5572 5568 5564 5560 5558 5551
5732 5729 5759 5775 5764 5755 5741 5739 5719 5689 5698 5711 5692 5690 5712 5713 5710 5706 5702 5700 5691 5682 5677 5672 5666 5659 5650 5642 5631 5626 5619 5610 5602 5593 5586 5579 5571 5566 5562 5556 5551 5548 5545 5542
5727 5731 5766 5765 5764 5758 5734 5725 5727 5708 5689 5689 5694 5701 5714 5704 5702 5698 5692 5687 5683 5678 5672 5663 5655 5651 5646 5636 5627 5617 5608 5598 5586 5581 5573 5566 5560 5555 5551 5546 5541 5539 5534 5531
5740 5726 5750 5755 5759 5746 5738 5732 5709 5703 5681 5677 5683 5681 5688 5702 5701 5694 5686 5682 5677 5670 5661 5654 5646 5637 5636 5624 5611 5596 5588 5581 5575 5569 5562 5556 5549 5545 5539 5535 5533 5530 5527 5523
5745 5731 5733 5742 5734 5727 5725 5718 5704 5697 5689 5678 5669 5678 5697 5692 5688 5686 5685 5678 5669 5660 5653 5646 5637 5624 5611 5601 5595 5586 5579 5572 5566 5558 5550 5545 5540 5536 5531 5527 5524 5521 5519 5516
5732 5724 5717 5725 5731 5730 5724 5711 5703 5689 5679 5671 5667 5676 5685 5683 5680 5675 5676 5673 5666 5654 5643 5632 5617 5607 5600 5595 5586 5578 5568 5561 5552 5545 5540 5536 5531 5525 5521 5518 5516 5513 5512 5509
5729 5710 5702 5708 5712 5718 5708 5706 5695 5684 5676 5677 5670 5673 5682 5681 5677 5672 5668 5664 5654 5640 5625 5615 5606 5597 5588 5580 5571 5562 5555 5547 5540 5535 5530 5526 5520 5515 5512 5509 5508 5506 5505 5505
5722 5704 5703 5694 5695 5699 5693 5697 5695 5686 5674 5670 5668 5664 5674 5672 5667 5666 5656 5648 5636 5626 5613 5601 5593 5586 5576 5566 5557 5549 5545 5537 5531 5525 5521 5516 5512 5508 5504 5502 5501 5501 5499 5499
5712 5696 5696 5700 5695 5694 5687 5684 5684 5678 5671 5663 5663 5659 5658 5654 5651 5650 5641 5634 5623 5609 5601 5600 5590 5575 5566 5558 5548 5542 5535 5529 5522 5517 5513 5509 5504 5500 5497 5495 5494 5494 5492 5492
5702 5690 5693 5690 5693 5690 5680 5679 5677 5675 5669 5665 5659 5655 5649 5646 5647 5640 5633 5624 5608 5604 5598 5588 5575 5563 5555 5546 5539 5534 5527 5520 5516 5512 5507 5501 5497 5494 5490 5488 5485 5484 5484 5485
5697 5694 5688 5678 5682 5680 5668 5670 5669 5666 5661 5654 5648 5642 5643 5641 5634 5627 5619 5612 5603 5591 5582 5572 5562 5554 5545 5539 5532 5528 5522 5516 5510 5504 5499 5495 5491 5486 5481 5477 5474 5474 5473 5476
5690 5686 5678 5678 5678 5655 5668 5672 5667 5659 5651 5649 5643 5637 5632 5626 5621 5619 5612 5604 5593 5582 5571 5563 5556 5547 5539 5534 5529 5522 5517 5512 5505 5499 5494 5488 5481 5475 5469 5463 5460 5460 5461 5466
5689 5682 5669 5664 5661 5661 5664 5662 5659 5655 5642 5642 5638 5634 5628 5622 5617 5611 5602 5594 5585 5574 5564 5556 5549 5542 5535 5531 5525 5518 5513 5508 5500 5494 5487 5480 5472 5463 5454 5446 5441 5443 5449 5458
5682 5679 5674 5654 5651 5643 5654 5660 5663 5658 5638 5640 5638 5632 5624 5618 5612 5608 5599 5588 5576 5566 5557 5551 5545 5539 5533 5528 5522 5515 5511 5504 5497 5490 5482 5468 5455 5445 5432 5421 5419 5424 5435 5448
5672 5665 5659 5642 5651 5649 5658 5657 5660 5637 5633 5639 5635 5629 5620 5613 5608 5598 5591 5582 5571 5559 5553 5547 5540 5535 5531 5526 5517 5513 5509 5503 5496 5486 5471 5457 5441 5426 5411 5400 5403 5411 5425 5440
5668 5662 5655 5645 5643 5636 5653 5655 5644 5643 5640 5638 5633 5626 5618 5609 5602 5596 5589 5578 5566 5556 5550 5543 5538 5533 5529 5524 5516 5514 5509 5503 5495 5478 5466 5452 5431 5415 5399 5391 5397 5404 5417 5434
5662 5659 5655 5648 5644 5645 5649 5647 5644 5642 5641 5636 5629 5621 5614 5608 5603 5597 5588 5577 5564 5555 5550 5545 5539 5534 5530 5526 5518 5514 5510 5503 5492 5477 5466 5450 5428 5410 5398 5393 5398 5405 5417 5431
5656 5653 5652 5644 5645 5645 5646 5644 5641 5640 5637 5633 5629 5621 5613 5609 5603 5595 5586 5574 5565 5557 5552 5548 5540 5534 5530 5527 5521 5515 5510 5502 5493 5480 5470 5453 5433 5413 5403 5403 5407 5413 5421 5431
5652 5649 5647 5643 5646 5644 5643 5641 5639 5636 5633 5630 5626 5620 5614 5607 5601 5592 5584 5576 5567 5559 5553 5547 5541 5533 5529 5527 5523 5519 5513 5504 5497 5488 5475 5461 5446 5430 5423 5422 5423 5427 5433 5434
5648 5649 5648 5640 5644 5641 5641 5640 5637 5633 5630 5630 5625 5618 5613 5605 5599 5590 5583 5577 5568 5561 5554 5546 5542 5538 5535 5532 5527 5523 5517 5508 5501 5494 5486 5475 5461 5451 5445 5443 5444 5443 5443 5449